Flag for Austria Weather past 2 weeks in Melk, Lower Austria, Austria

46 °F

Passing clouds.

Feels Like: 42 °F
Forecast: 41 / 49 °F
Wind: 9 mph from East

Location: Tulln Airport

Current Time: Oct 14, 2015 at 1:06:04 AM

Latest Report: Oct 13, 2015 at 10:50 PM

Visibility: 4 mi

Pressure: 29.98 "Hg

Humidity: 93%

Dew point: 45 °F

Location of MelkLocation

Historic Weather in Melk — Graph


Melk temperature yesterday

Maximum temperature yesterday: 46 °F (at 9:50 PM)
Minimum temperature yesterday: 37 °F (at 6:50 AM)
Average temperature yesterday: 42 °F

Past Weeks' High & Low Weather Summary

High72 °F (Oct 3, 4:50 PM)100% (Oct 4, 5:50 AM)30.51 "Hg (Oct 4, 5:50 AM)
Low34 °F (Oct 12, 6:50 AM)46% (Oct 2, 1:50 PM)29.80 "Hg (Oct 6, 3:50 PM)
Average53 °F77%30.13 "Hg
* Reported Sep 28 10:50 PM — Oct 13 10:50 PM, Melk, Weather by CustomWeather, © 2015

Note: Actual official high and low records may vary slightly from our data, if they occured in-between our weather recording intervals... More about our weather records


Melk weather history for previous 24 hours

Time TempWeatherWind HumidityBarometerVisibility
10:50 PM
Tue, Oct 13
46 °FPassing clouds.9 mph93%29.98 "Hg4 mi
9:50 PM46 °FPassing clouds.10 mph93%29.98 "Hg4 mi
8:50 PM45 °FPassing clouds.9 mph93%30.01 "Hg4 mi
7:50 PM45 °FPassing clouds.8 mph87%30.01 "Hg4 mi
7:20 PM45 °FPassing clouds.10 mph87%30.01 "Hg4 mi
6:50 PM45 °FPartly sunny.8 mph87%30.01 "Hg4 mi
5:50 PM45 °FPartly sunny.9 mph81%30.01 "Hg4 mi
5:20 PM45 °FPartly sunny.8 mph81%30.04 "Hg4 mi
4:50 PM45 °FPartly sunny.8 mph87%30.04 "Hg4 mi
3:50 PM45 °FPartly sunny.7 mph81%30.04 "Hg4 mi
2:50 PM43 °FPartly sunny.8 mph87%30.04 "Hg5 mi
1:50 PM43 °FPartly sunny.7 mph81%30.07 "Hg5 mi
12:50 PM41 °FPartly sunny.7 mph81%30.07 "Hg5 mi
11:50 AM39 °FBroken clouds.8 mph87%30.07 "Hg5 mi
10:50 AM39 °FBroken clouds.7 mph81%30.07 "Hg4 mi
10:20 AM37 °FPartly sunny.7 mph87%30.09 "Hg4 mi
9:50 AM37 °FPartly sunny.8 mph87%30.09 "Hg4 mi
9:20 AM37 °FBroken clouds.9 mph87%30.09 "Hg4 mi
8:50 AM37 °FBroken clouds.9 mph87%30.07 "Hg4 mi
7:50 AM37 °FPassing clouds.6 mph87%30.07 "Hg5 mi
6:50 AM37 °FOvercast.6 mph87%30.07 "Hg4 mi
Weather by CustomWeather, © 2015

See weather overviewHow to use our weather pages